Location: Unspecified
(0.0000°N, 0.0000°E)
Time: 19:15:42
(UTC+02:00)

Cosmos 1812 Rocket - Visible Passes

Search period start: 29 May 2016 00:00
Search period end: 08 June 2016 00:00
Orbit: 605 x 634 km, 82.5° (Epoch: 29 May)

Date Brightness Start Highest point End Pass type
(mag) Time Alt. Az. Time Alt. Az. Time Alt. Az.
03 Jun 6.1 22:16:42 10° N 22:17:19 14° N 22:17:19 14° N visible
04 Jun 6.2 22:34:22 10° NNW 22:35:20 16° NNW 22:35:20 16° NNW visible
05 Jun 5.7 21:15:28 10° NE 21:16:11 13° NE 21:16:11 13° NE visible
05 Jun 6.7 22:52:52 10° NW 22:53:23 12° NW 22:53:23 12° NW visible
06 Jun 4.7 21:31:39 10° NNE 21:34:16 29° NE 21:34:16 29° NE visible
07 Jun 3.8 21:48:43 10° N 21:52:26 62° N 21:52:26 62° N visible
